Weather History for KIKV - May, 2014

Change the Weather History Date:

Tuesday, May 13, 2014

  Actual Average (KDSM) Record (KDSM)
Temperature  
Mean Temperature 52 °F 61 °F  
Max Temperature 59 °F 72 °F 92 °F (1956)
Min Temperature 46 °F 51 °F 32 °F (1997)
Degree Days  
Heating Degree Days 12 5  
Month to date heating degree days 86  
Since 1 July heating degree days 6125  
Cooling Degree Days 0 2  
Month to date cooling degree days 14  
Year to date cooling degree days 28  
Growing Degree Days 2 (Base 50)    
Moisture  
Dew Point 40 °F    
Average Humidity 65    
Maximum Humidity 82    
Minimum Humidity 44    
Precipitation  
Precipitation 0.00 in 0.16 in 2.51 in (1970)
Month to date precipitation 2.02  
Year to date precipitation 10.46  
Snow  
Snow 0.00 in 0.00 in 0.10 in (1918)
Month to date snowfall 0.0  
Since 1 July snowfall 35.3  
Snow Depth -    
Sea Level Pressure  
Sea Level Pressure 30.11 in    
Wind  
Wind Speed 14 mph (NW)    
Max Wind Speed 18 mph    
Max Gust Speed 28 mph    
Visibility 10 miles    
Events      
T = Trace of Precipitation, MM = Missing Value Source: NWS Daily Summary

Daily Weather History Graph

Daily Weather History Graph

Search for Another Location

Airport or City:

Trip Planner

Search our weather history database for the weather conditions in past years. The results will help you decide how hot, cold, wet, or windy it might be!

Date:

Astronomy

May. 13, 2014 Rise Set
Actual Time 5:56 AM CDT 8:25 PM CDT
Civil Twilight 5:25 AM CDT 8:56 PM CDT
Nautical Twilight 4:46 AM CDT 9:36 PM CDT
Astronomical Twilight 4:02 AM CDT 10:20 PM CDT
Moon 7:26 PM CDT (5/13) 5:14 AM CDT (5/13)
Length of Visible Light 15h 31m
Length of Day
14h 28m
Waxing Gibbous, 99% of the Moon is Illuminated
May 13
Waxing Gibbous
May 14
Full
May 21
Last Quarter
May 28
New
Jun 5
First Quarter

Hourly Weather History & Observations

Time (CDT) Temp. Windchill Dew Point Humidity Pressure Visibility Wind Dir Wind Speed Gust Speed Precip Events Conditions
12:15 AM 50.0 °F - 44.6 °F 82% 29.94 in 10.0 mi NW 15.0 mph 25.3 mph N/A   Overcast
12:35 AM 50.0 °F - 44.6 °F 82% 29.95 in 10.0 mi NW 13.8 mph 19.6 mph N/A   Overcast
12:55 AM 50.0 °F - 44.6 °F 82% 29.96 in 10.0 mi NW 13.8 mph 23.0 mph N/A   Overcast
1:15 AM 50.0 °F - 44.6 °F 82% 29.97 in 10.0 mi NW 16.1 mph - N/A   Overcast
1:35 AM 50.0 °F - 44.6 °F 82% 29.98 in 10.0 mi NW 13.8 mph - N/A   Overcast
1:55 AM 50.0 °F - 44.6 °F 82% 29.98 in 10.0 mi NW 13.8 mph 19.6 mph N/A   Overcast
2:15 AM 50.0 °F - 44.6 °F 82% 29.98 in 10.0 mi NW 13.8 mph 19.6 mph N/A   Overcast
2:35 AM 50.0 °F - 42.8 °F 76% 29.98 in 10.0 mi NW 15.0 mph 27.6 mph N/A   Overcast
2:55 AM 50.0 °F - 42.8 °F 76% 29.98 in 10.0 mi NW 11.5 mph 18.4 mph N/A   Overcast
3:15 AM 48.2 °F - 42.8 °F 82% 29.97 in 10.0 mi NNW 15.0 mph 20.7 mph N/A   Overcast
3:35 AM 48.2 °F - 42.8 °F 82% 29.98 in 10.0 mi NW 13.8 mph - N/A   Overcast
3:55 AM 48.2 °F - 42.8 °F 82% 29.99 in 10.0 mi NW 15.0 mph 21.9 mph N/A   Overcast
4:15 AM 48.2 °F - 42.8 °F 82% 30.00 in 10.0 mi NNW 13.8 mph 20.7 mph N/A   Overcast
4:35 AM 48.2 °F - 42.8 °F 82% 30.00 in 10.0 mi NNW 15.0 mph - N/A   Overcast
4:55 AM 48.2 °F - 41.0 °F 76% 30.01 in 10.0 mi NW 17.3 mph - N/A   Overcast
5:15 AM 48.2 °F - 41.0 °F 76% 30.01 in 10.0 mi NW 15.0 mph 20.7 mph N/A   Overcast
5:35 AM 48.2 °F - 42.8 °F 82% 30.03 in 10.0 mi NNW 10.4 mph - N/A   Overcast
5:55 AM 48.2 °F - 41.0 °F 76% 30.03 in 10.0 mi NW 10.4 mph 19.6 mph N/A   Overcast
6:15 AM 48.2 °F - 41.0 °F 76% 30.04 in 10.0 mi NW 13.8 mph 20.7 mph N/A   Overcast
6:35 AM 48.2 °F - 41.0 °F 76% 30.04 in 10.0 mi NW 11.5 mph 19.6 mph N/A   Overcast
6:55 AM 46.4 °F 41.1 °F 41.0 °F 81% 30.05 in 10.0 mi NW 11.5 mph 18.4 mph N/A   Overcast
8:15 AM 48.2 °F - 41.0 °F 76% 30.07 in 10.0 mi NNW 15.0 mph - N/A   Overcast
8:35 AM 48.2 °F - 39.2 °F 71% 30.08 in 10.0 mi North 18.4 mph 25.3 mph N/A   Overcast
8:55 AM 48.2 °F - 39.2 °F 71% 30.09 in 10.0 mi NNW 17.3 mph 24.2 mph N/A   Overcast
9:15 AM 48.2 °F - 41.0 °F 76% 30.09 in 10.0 mi NNW 11.5 mph 19.6 mph N/A   Overcast
10:55 AM 50.0 °F - 42.8 °F 76% 30.14 in 10.0 mi NW 10.4 mph 17.3 mph N/A   Overcast
11:35 AM 51.8 °F - 42.8 °F 71% 30.14 in 10.0 mi WNW 15.0 mph 21.9 mph N/A   Overcast
12:15 PM 53.6 °F - 42.8 °F 67% 30.16 in 10.0 mi WNW 11.5 mph 20.7 mph N/A   Overcast
12:35 PM 53.6 °F - 42.8 °F 67% 30.16 in 10.0 mi NW 15.0 mph - N/A   Overcast
12:55 PM 53.6 °F - 41.0 °F 62% 30.16 in 10.0 mi NW 18.4 mph - N/A   Overcast
1:15 PM 53.6 °F - 41.0 °F 62% 30.16 in 10.0 mi WNW 15.0 mph 21.9 mph N/A   Overcast
1:35 PM 55.4 °F - 41.0 °F 58% 30.16 in 10.0 mi NW 13.8 mph 20.7 mph N/A   Mostly Cloudy
1:55 PM 55.4 °F - 41.0 °F 58% 30.16 in 10.0 mi NW 13.8 mph - N/A   Mostly Cloudy
2:15 PM 57.2 °F - 42.8 °F 59% 30.15 in 10.0 mi NW 17.3 mph - N/A   Mostly Cloudy
2:35 PM 57.2 °F - 39.2 °F 51% 30.15 in 10.0 mi NW 17.3 mph 25.3 mph N/A   Mostly Cloudy
2:55 PM 57.2 °F - 39.2 °F 51% 30.16 in 10.0 mi NNW 18.4 mph - N/A   Mostly Cloudy
3:15 PM 57.2 °F - 37.4 °F 48% 30.15 in 10.0 mi NW 17.3 mph 25.3 mph N/A   Mostly Cloudy
3:35 PM 57.2 °F - 37.4 °F 48% 30.16 in 10.0 mi NW 17.3 mph 27.6 mph N/A   Mostly Cloudy
3:55 PM 57.2 °F - 37.4 °F 48% 30.15 in 10.0 mi NW 18.4 mph 26.5 mph N/A   Mostly Cloudy
4:15 PM 59.0 °F - 37.4 °F 45% 30.15 in 10.0 mi NNW 15.0 mph 25.3 mph N/A   Mostly Cloudy
4:35 PM 57.2 °F - 35.6 °F 44% 30.16 in 10.0 mi NNW 16.1 mph 21.9 mph N/A   Overcast
4:55 PM 57.2 °F - 37.4 °F 48% 30.17 in 10.0 mi NNW 15.0 mph 24.2 mph N/A   Overcast
5:15 PM 55.4 °F - 35.6 °F 47% 30.17 in 10.0 mi NNW 15.0 mph 23.0 mph N/A   Overcast
5:35 PM 55.4 °F - 37.4 °F 51% 30.17 in 10.0 mi NW 16.1 mph - N/A   Overcast
5:55 PM 55.4 °F - 35.6 °F 47% 30.18 in 10.0 mi NNW 12.7 mph 20.7 mph N/A   Overcast
6:15 PM 55.4 °F - 37.4 °F 51% 30.17 in 10.0 mi NW 13.8 mph - N/A   Mostly Cloudy
6:35 PM 57.2 °F - 35.6 °F 44% 30.17 in 10.0 mi NW 12.7 mph 18.4 mph N/A   Mostly Cloudy
7:15 PM 55.4 °F - 37.4 °F 51% 30.19 in 10.0 mi NW 10.4 mph 17.3 mph N/A   Overcast
7:35 PM 55.4 °F - 37.4 °F 51% 30.19 in 10.0 mi NNW 8.1 mph 15.0 mph N/A   Overcast
7:55 PM 55.4 °F - 37.4 °F 51% 30.19 in 10.0 mi North 8.1 mph - N/A   Overcast
8:15 PM 55.4 °F - 37.4 °F 51% 30.20 in 10.0 mi NNW 8.1 mph - N/A   Overcast
8:35 PM 53.6 °F - 37.4 °F 54% 30.20 in 10.0 mi NNW 6.9 mph - N/A   Overcast
8:55 PM 53.6 °F - 37.4 °F 54% 30.21 in 10.0 mi NNW 6.9 mph - N/A   Overcast
9:15 PM 53.6 °F - 37.4 °F 54% 30.21 in 10.0 mi NNW 5.8 mph - N/A   Overcast
9:35 PM 53.6 °F - 37.4 °F 54% 30.23 in 10.0 mi NW 9.2 mph - N/A   Overcast
9:55 PM 53.6 °F - 37.4 °F 54% 30.23 in 10.0 mi NW 5.8 mph - N/A   Overcast
10:15 PM 51.8 °F - 37.4 °F 58% 30.24 in 10.0 mi NW 5.8 mph - N/A   Mostly Cloudy
10:35 PM 50.0 °F - 37.4 °F 62% 30.25 in 10.0 mi WNW 5.8 mph - N/A   Scattered Clouds
10:55 PM 50.0 °F - 37.4 °F 62% 30.25 in 10.0 mi WNW 5.8 mph - N/A   Mostly Cloudy
11:15 PM 48.2 °F - 39.2 °F 71% 30.25 in 10.0 mi WNW 6.9 mph - N/A   Mostly Cloudy
11:35 PM 48.2 °F - 39.2 °F 71% 30.24 in 10.0 mi NW 4.6 mph - N/A   Overcast
11:55 PM 50.0 °F - 39.2 °F 66% 30.24 in 10.0 mi NNW 6.9 mph - N/A   Overcast